Regional Weather Roundup
Issued by NWS

Home | Current Version | Previous Version | Graphics & Text | Print | Product List | Glossary On
Versions: 1 2 3 4 5 6 7 8 9 10 11 12 13 14 15 16 17 18 19 20 21 22 23 24 25 26 27
000
ASUS45 KTFX 281510
RWRMT
MONTANA REGIONAL WEATHER ROUNDUP
NATIONAL WEATHER SERVICE GREAT FALLS MT
900 AM MDT FRI APR 28 2017

NOTE: "FAIR" INDICATES FEW OR NO CLOUDS BELOW 12000 FEET WITH NO
SIGNIFICANT WEATHER AND/OR OBSTRUCTIONS TO VISIBILITY.

MTZ001>007-043-281600-
WEST OF THE DIVIDE

CITY           SKY/WX    TMP DP  RH WIND       PRES   REMARKS
KALISPELL      CLOUDY    41  37  86 S6        30.04R
MISSOULA       CLOUDY    41  34  76 NW3       30.07R
BUTTE          CLOUDY    34  21  59 NW8       29.99R WCI  27
MULLAN PASS    FOG       29  28  96 CALM      30.01R VSB<1/4
ANACONDA         N/A     34  23  64 NE6       30.01R WCI  29
DEER LODGE       N/A     34  27  75 CALM      30.05R
EUREKA           N/A     43  36  75 SE5       30.04R
HAMILTON         N/A     39  28  65 CALM      30.06R
LIBBY            N/A     41  36  81 CALM      30.05R
$$

MTZ008-052>055-281600-
SOUTHWEST MONTANA

CITY           SKY/WX    TMP DP  RH WIND       PRES   REMARKS
BOZEMAN        CLOUDY    37  30  75 W10       29.97  WCI  30
DILLON         SUNNY     33  22  63 CALM      29.97R
W YELLOWSTONE  CLOUDY    32  23  69 N5        29.87R
THREE FORKS      N/A     41  41 100 CALM      29.98R
$$

MTZ009-010-012-014-046-048-049-054-281600-
EAST SLOPES AND CENTRAL MONTANA

CITY           SKY/WX    TMP DP  RH WIND       PRES   REMARKS
CUT BANK       CLOUDY    37  35  92 N13       30.01R WCI  29
GREAT FALLS    CLOUDY    39  32  76 W6        29.99R
MALMSTROM AFB  CLOUDY    39  35  86 W9        30.00R
HELENA         CLOUDY    43  26  51 W9        29.99R
AUGUSTA        PTSUNNY   40  27  59 CALM      29.99R
BOWMANS CRNR   PTSUNNY   33  31  92 SW3       29.98R
CHOTEAU          N/A     39  36  87 N8        30.02R
FAIRFIELD      PTSUNNY   39  33  78 NW6       29.99R
POWER          CLOUDY    39  35  87 NW7       29.99R
RAYNESFORD     PTSUNNY   39  37  91 N3        29.99R
ULM            CLOUDY    39  34  82 SW3       30.00R
$$

MTZ011-013-016-021-045-047-050-051-281600-
NORTH CENTRAL MONTANA

CITY           SKY/WX    TMP DP  RH WIND       PRES   REMARKS
HAVRE          MOSUNNY   40  37  89 E3        30.00R
LEWISTOWN      LGT RAIN  36  33  89 N3        29.97R
N BAR RANCH    CLOUDY    34  30  86 NW7       29.98R WCI  28
CHINOOK          N/A     37  37 100 W5        30.01R
DENTON         PTSUNNY   40  37  87 NW13      29.96R
FORT BENTON      N/A     45  37  76 N7        30.01R
GEYSER         CLOUDY    39  35  84 W3        29.98R
GRASS RANGE    CLOUDY    35  33  92 CALM      29.95R
JUDITH GAP     PTSUNNY   36  34  92 N25       29.94R WCI  24
STANFORD       CLOUDY    38  35  89 NW8       29.97R
WINIFRED       PTSUNNY   39  37  91 N6        29.98R
$$

MTZ017>020-022>027-061-062-281600-
NORTHEAST MONTANA

CITY           SKY/WX    TMP DP  RH WIND       PRES   REMARKS
GLASGOW        CLOUDY    44  20  38 SE7       29.99R
JORDAN           N/A     43  25  49 E3        29.96R
SIDNEY         SUNNY     42  26  53 CALM      30.02R
WOLF POINT     CLOUDY    43  24  47 E8        30.01R
MALTA          SUNNY     48  32  53 E6        29.98R
PLENTYWOOD       N/A     43  27  52 S8        30.02R
POPLAR           N/A     41  23  48 E7        30.02R
$$

MTZ028>42-056>058-281600-
SOUTHCENTRAL AND SOUTHEAST MONTANA

CITY           SKY/WX    TMP DP  RH WIND       PRES   REMARKS
BAKER          PTSUNNY   39  26  59 SE13      29.97R WCI  31
BILLINGS       CLOUDY    40  37  89 N14       29.93R
LIVINGSTON     LGT SNOW  34  32  92 SW8       29.94R FOG     WCI  27
MILES CITY     MOSUNNY   42  28  57 NE9       29.96R
BIG TIMBER     SUNNY     36  34  93 W6        29.97R WCI  31
LAUREL           N/A     39  33  79 N12       29.92F WCI  32
ROUNDUP          N/A     40  32  73 NW12      29.87R
$$

REGIONAL REPORTS...DAKOTAS

CITY           SKY/WX    TMP DP  RH WIND       PRES   REMARKS
WILLISTON      SUNNY     44  28  53 SE5       30.03R
MINOT          SUNNY     44  16  32 VRB3      30.02R
DICKINSON      SUNNY     40  25  55 SE7       29.97R
BEACH            N/A     41  25  52 SE10      30.02R
TIOGA            N/A     41  23  48 CALM      30.03R
WATFORD CITY     N/A     41  28  60 CALM      30.01S
BISMARCK       SUNNY     43  25  49 N6        30.02R
GRAND FORKS    SUNNY     42  27  55 N14       29.96R
FARGO          SUNNY     39  29  67 N10       29.96R
BUFFALO SD       N/A     39  28  64 E13       29.88R WCI  31
RAPID CITY     CLOUDY    39  30  70 NE10      29.89R
$$

REGIONAL REPORTS...WYOMING/IDAHO/WASHINGTON

CITY           SKY/WX    TMP DP  RH WIND       PRES   REMARKS
GILLETTE       SNOW      32  31  96 NE18G26   29.85R WCI  20
SHERIDAN       CLOUDY    34  32  92 W13       29.90R WCI  25
BUFFALO WY     SNOW      33  29  85 NW14      29.88R VSB 1/4 WCI  23
CODY           LGT SNOW  33  31  92 N18G25    29.86R FOG     WCI  22
YELLOWSTONE LA   N/A     26  21  81 MISG      29.84R
IDAHO FALLS    CLOUDY    34  29  82 NW14      29.91R WCI  25
SALMON         CLOUDY    34  27  75 N3        30.03R
BOISE          SUNNY     41  32  70 NW16      30.06R
SPOKANE        MOSUNNY   40  32  73 S7        30.10R
$$

REGIONAL REPORTS...ALBERTA

CITY           SKY/WX    TMP DP  RH WIND       PRES   REMARKS
EDMONTON       SUNNY     34  30  86 SW2       30.07R
CALGARY        CLOUDY    36  30  80 N9        30.04R WCI  29
LETHBRIDGE     LGT SNOW  34  34 100 N3        30.06R
MEDICINE HAT   CLOUDY    39  32  75 N6        30.04R
CARDSTON         N/A     32  32 100 N5          N/A
ONEFOUR          N/A     37  36  93 NW9         N/A  WCI  31
$$

REGIONAL REPORTS...SASKATCHEWAN

CITY           SKY/WX    TMP DP  RH WIND       PRES   REMARKS
SWIFT CURRENT  MOSUNNY   39  37  93 W5        29.97R
REGINA         MOSUNNY   45  23  42 SE9       30.01R
SASKATOON      PTSUNNY   43  23  45 E2        30.00S
CYPRESS HILLS    N/A     32  28  86 NW7         N/A  WCI  26
ROCKGLEN         N/A     43  21  42 S9          N/A
$$




USA.gov is the U.S. government's official web portal to all federal, state and local government web resources and services.